Weather History for Kirksville, MO

Change the Weather History Date:

Thursday, August 2, 2012

  Actual Average Record
Temperature  
Mean Temperature 80 °F 76 °F  
Max Temperature 91 °F 86 °F 104 °F (1934)
Min Temperature 68 °F 65 °F 52 °F (1985)
Degree Days  
Heating Degree Days 0 0  
Month to date heating degree days 0 0  
Since 1 June heating degree days 10 17  
Since 1 July heating degree days 0 1  
Cooling Degree Days 15 10  
Month to date cooling degree days 31 21  
Year to date cooling degree days 970 588  
Since 1 June cooling degree days 826 526  
Growing Degree Days 30 (Base 50)    
Moisture  
Dew Point 64 °F    
Average Humidity 67    
Maximum Humidity 90    
Minimum Humidity 44    
Precipitation  
Precipitation T in 0.12 in 2.60 in (1921)
Month to date precipitation T 0.23  
Year to date precipitation 15.35 23.82  
Sea Level Pressure  
Sea Level Pressure 29.80 in    
Wind  
Wind Speed 3 mph (ESE)    
Max Wind Speed 8 mph    
Max Gust Speed 10 mph    
Visibility 10 miles    
Events      
T = Trace of Precipitation, MM = Missing Value Source: NWS Daily Summary

Daily Weather History Graph

Daily Weather History Graph

Search for Another Location

Airport:

Trip Planner

Search our weather history database for the weather conditions in past years. The results will help you decide how hot, cold, wet, or windy it might be!

Date:

Astronomy

Aug. 02, 2012 Rise Set
Actual Time 6:09 AM CDT 8:22 PM CDT
Civil Twilight 5:39 AM CDT 8:52 PM CDT
Nautical Twilight 5:02 AM CDT 9:29 PM CDT
Astronomical Twilight 4:21 AM CDT 10:10 PM CDT
Moon 8:28 PM CDT (8/2) 6:47 AM CDT (8/2)
Length of Visible Light 15h 13m
Length of Day
14h 12m
Full, 100% of the Moon is Illuminated
Aug 2
Full
Aug 9
Last Quarter
Aug 17
New
Aug 24
First Quarter
Aug 31
Full

Hourly Weather History & Observations

Time (CDT) Temp. Heat Index Dew Point Humidity Pressure Visibility Wind Dir Wind Speed Gust Speed Precip Events Conditions
12:55 AM 73.0 °F - 60.1 °F 64% 29.85 in 10.0 mi ESE 5.8 mph - N/A   Clear
1:55 AM 70.0 °F - 59.0 °F 68% 29.84 in 10.0 mi ESE 5.8 mph - N/A   Clear
2:55 AM 71.1 °F - 59.0 °F 66% 29.82 in 10.0 mi East 4.6 mph - N/A   Clear
3:55 AM 70.0 °F - 59.0 °F 68% 29.81 in 10.0 mi East 4.6 mph - N/A   Clear
4:55 AM 70.0 °F - 59.0 °F 68% 29.81 in 10.0 mi East 4.6 mph - N/A   Clear
5:55 AM 70.0 °F - 57.9 °F 65% 29.81 in 10.0 mi East 4.6 mph - N/A   Clear
6:55 AM 71.1 °F - 59.0 °F 66% 29.82 in 10.0 mi ESE 4.6 mph - N/A   Clear
7:55 AM 73.0 °F - 60.1 °F 64% 29.83 in 10.0 mi SE 4.6 mph - N/A   Clear
8:55 AM 75.9 °F - 61.0 °F 60% 29.85 in 10.0 mi South 4.6 mph - N/A   Clear
9:55 AM 81.0 °F 82.2 °F 63.0 °F 54% 29.82 in 10.0 mi South 3.5 mph - N/A   Clear
10:55 AM 87.1 °F 88.9 °F 64.9 °F 48% 29.79 in 10.0 mi ENE 5.8 mph - N/A   Clear
11:55 AM 87.1 °F 89.2 °F 66.0 °F 49% 29.77 in 10.0 mi East 6.9 mph - N/A   Scattered Clouds
12:55 PM 87.8 °F 91.4 °F 68.0 °F 52% 29.79 in 10.0 mi East 4.6 mph - N/A   Partly Cloudy
1:55 PM 88.0 °F 90.7 °F 66.9 °F 49% 29.79 in 10.0 mi ENE 4.6 mph - N/A   Mostly Cloudy
2:55 PM 87.1 °F 91.3 °F 69.1 °F 55% 29.80 in 10.0 mi Calm Calm - 0.00 in   Overcast
3:55 PM 90.0 °F 94.5 °F 69.1 °F 50% 29.78 in 10.0 mi Calm Calm - N/A   Partly Cloudy
4:55 PM 91.4 °F 94.0 °F 66.2 °F 43% 29.79 in 10.0 mi East 5.8 mph - N/A   Partly Cloudy
5:55 PM 90.0 °F 92.4 °F 66.0 °F 45% 29.77 in 10.0 mi Calm Calm - N/A   Clear
6:55 PM 90.0 °F 92.4 °F 66.0 °F 45% 29.77 in 10.0 mi Variable 3.5 mph - N/A   Clear
7:55 PM 86.0 °F 90.1 °F 69.1 °F 57% 29.77 in 10.0 mi Calm Calm - N/A   Clear
8:55 PM 77.0 °F - 69.1 °F 76% 29.79 in 10.0 mi Calm Calm - N/A   Clear
9:55 PM 75.0 °F - 69.1 °F 82% 29.81 in 10.0 mi Calm Calm - N/A   Clear
10:55 PM 73.0 °F - 69.1 °F 87% 29.81 in 10.0 mi Calm Calm - N/A   Clear
11:55 PM 71.6 °F - 68.0 °F 88% 29.82 in 10.0 mi Calm Calm - N/A   Clear